GEFSSGP_con_cape1000_312.txt.gz
Probability
16 16 19 35 23 3 0 0 0 0 0 0 0 0 0 0 0 3 0 0 3 10 16 32 55 52 52 55 48 45 55 55 45 48 45 45 52 58 55 52 48 58 52 58 61 65 58 61 65
32 26 35 35 6 0 0 0 0 0 0 0 0 0 0 3 0 0 0 0 6 6 10 16 45 52 55 61 55 45 48 52 45 48 45 48 55 52 52 55 48 48 58 52 52 55 55 61 65
26 19 29 10 0 0 0 0 0 0 0 0 0 0 0 0 0 0 3 3 6 6 6 26 39 42 48 55 58 48 48 52 58 52 48 55 55 55 55 48 48 52 61 58 55 58 58 61 61
32 45 16 3 0 0 0 0 0 0 0 0 3 0 0 0 0 0 3 3 6 6 6 19 42 45 52 45 52 55 55 55 58 55 45 52 48 52 55 48 52 48 52 55 45 45 55 61 61
29 29 3 0 0 0 0 0 0 0 0 0 0 0 0 6 0 0 6 3 3 3 6 19 39 45 48 52 55 58 58 48 52 55 48 45 52 52 45 42 45 42 45 48 42 48 48 55 48
23 16 0 0 0 0 0 0 0 0 0 0 0 0 10 6 0 0 3 13 10 10 10 23 35 39 45 42 48 61 58 45 48 52 45 48 45 48 52 52 48 45 45 39 42 45 45 48 52
23 6 0 0 0 0 0 0 0 0 0 0 0 0 6 6 3 6 13 10 6 10 6 6 10 29 35 48 45 48 45 35 42 45 42 52 48 48 48 48 55 48 35 39 35 45 45 55 55
23 10 0 0 0 0 0 0 0 0 0 0 0 0 0 10 6 6 10 10 10 3 0 0 3 10 16 13 32 32 35 39 39 42 45 48 55 55 52 55 58 52 45 45 42 48 45 48 48
23 10 0 0 0 0 0 0 0 0 0 3 0 0 0 6 6 6 10 10 16 10 10 10 6 19 13 6 6 16 29 35 35 42 39 45 48 55 48 52 55 52 48 42 42 42 45 42 45
13 6 3 3 0 0 0 0 0 0 0 3 6 3 3 6 6 6 13 10 6 6 10 13 13 16 10 3 23 26 19 35 35 42 48 48 55 55 35 45 48 45 42 42 35 32 35 35 42
6 3 3 3 3 3 0 0 0 0 0 0 3 3 3 6 6 6 10 6 6 10 6 10 13 19 13 23 19 32 32 39 42 45 55 68 58 52 45 45 52 55 42 45 35 39 35 35 35
3 3 3 3 3 0 0 0 0 0 0 0 3 10 6 6 13 6 3 10 10 10 10 6 16 29 35 29 26 32 29 42 29 45 52 55 55 61 52 52 52 52 55 55 48 48 32 35 29
3 3 0 0 0 0 0 0 0 0 0 0 3 10 3 3 10 6 3 6 10 16 16 16 13 29 42 55 55 26 26 19 26 58 52 52 48 39 39 58 58 42 42 52 48 39 42 39 32
0 0 0 0 0 0 0 0 0 0 0 3 3 10 0 6 3 6 3 10 6 13 13 10 16 29 42 58 55 42 32 65 48 48 48 45 39 42 42 45 52 39 52 52 48 29 45 39 39
0 0 0 0 0 0 0 0 0 3 3 3 3 3 6 3 0 6 6 10 6 10 19 13 13 29 39 42 45 42 35 35 39 39 48 42 39 45 52 39 42 48 45 55 58 39 42 39 39
0 0 0 0 0 0 0 0 3 3 3 3 3 6 10 6 3 6 10 16 23 23 39 29 16 19 39 48 58 45 32 35 39 39 39 42 48 52 52 52 52 48 48 39 45 39 42 52 45
0 0 0 0 0 0 0 0 6 3 3 0 3 10 10 10 3 13 16 13 29 42 55 61 42 35 45 55 65 45 52 55 48 39 42 48 48 48 48 45 55 52 39 32 35 39 48 48 48
0 0 0 0 0 0 0 0 6 3 6 0 0 10 10 6 3 10 16 16 29 42 55 61 61 55 55 55 55 55 52 55 45 45 58 48 45 45 48 48 52 42 35 45 48 58 48 48 52
0 0 0 0 0 0 0 0 3 3 6 6 10 10 10 6 10 19 23 26 29 42 55 55 65 61 61 55 52 55 48 52 48 45 52 48 48 48 45 39 48 48 45 42 39 42 42 42 45
0 0 0 0 0 0 0 0 0 6 3 6 10 13 6 6 6 19 32 35 32 52 55 58 65 68 65 58 65 58 61 55 55 58 55 58 42 45 35 45 35 39 45 45 45 48 45 39 39
0 0 0 0 0 0 0 0 0 6 6 6 10 13 10 13 10 19 29 45 39 45 55 55 68 65 65 65 65 61 61 55 52 58 61 52 45 39 45 42 39 42 35 35 45 45 45 35 42
0 0 0 0 0 0 0 0 0 3 3 10 16 19 19 19 23 23 29 48 42 45 55 61 65 65 68 65 65 61 61 58 55 45 48 45 42 39 39 42 42 45 35 48 39 39 35 45 39
0 0 0 0 0 0 0 0 0 0 3 3 13 19 19 19 19 23 26 45 42 48 52 61 65 68 71 65 65 61 58 55 45 42 42 42 45 45 39 45 45 48 42 42 42 39 42 39 42
0 0 0 0 0 0 0 0 0 0 0 3 6 13 16 13 13 23 23 32 42 48 48 55 68 71 71 65 65 61 65 65 58 55 45 42 39 48 39 39 48 48 45 45 52 48 48 52 48
0 0 0 0 0 0 0 0 0 0 3 3 6 6 13 16 16 23 23 32 52 48 52 61 65 71 71 71 65 65 65 65 61 52 42 39 32 35 52 45 48 48 48 48 45 52 52 52 52
0 0 0 0 0 0 0 0 0 3 6 6 6 13 10 19 19 19 26 45 48 55 52 58 65 71 68 68 65 65 65 52 52 52 39 42 35 39 48 39 48 52 45 39 52 45 39 48 52
0 0 0 0 0 0 0 0 0 3 10 10 13 16 16 10 23 26 26 39 42 48 52 58 68 68 65 61 61 58 52 48 48 48 45 39 39 32 32 32 42 45 52 55 55 48 52 48 48
0 0 0 0 0 0 0 0 0 0 6 10 16 23 19 23 16 19 23 39 42 45 48 55 61 68 61 58 52 45 45 48 48 39 39 39 39 39 42 42 42 45 45 45 48 42 48 45 45
0 0 0 0 0 0 0 0 0 0 3 10 13 23 26 29 26 29 35 42 42 48 48 58 61 68 65 48 52 52 48 42 45 45 45 42 45 35 35 32 35 39 42 42 45 39 39 39 42
0 0 0 0 0 0 0 0 0 0 6 16 16 23 32 29 32 29 35 48 45 52 52 61 65 65 55 58 52 48 48 45 42 42 42 42 45 35 35 35 32 29 29 35 35 35 35 35 29

GEFSSGP_con_cape1000_318.txt.gz
Probability
6 10 26 68 61 19 0 3 0 0 0 0 0 3 3 3 10 10 13 19 26 26 23 42 65 61 55 55 52 55 52 48 48 52 52 55 42 32 35 39 42 48 52 55 58 61 52 55 55
13 29 61 61 35 0 0 3 3 3 3 0 0 3 0 0 10 10 13 13 19 26 29 29 68 58 55 58 52 55 55 48 52 52 52 55 45 45 45 45 52 55 45 52 61 65 58 55 61
26 48 61 58 3 0 0 0 0 0 0 0 3 0 0 0 0 10 10 10 23 23 29 42 65 58 52 48 48 52 48 48 52 52 52 48 45 45 42 45 48 45 45 45 58 58 58 55 55
58 68 61 19 0 0 0 0 0 0 3 3 0 0 0 0 6 10 10 6 3 13 23 35 58 45 42 45 39 42 52 58 55 48 45 48 45 45 35 45 48 42 45 45 48 55 52 52 55
55 61 39 3 0 0 0 0 0 0 0 0 0 0 3 6 10 6 6 6 6 13 23 26 52 39 48 39 39 42 48 52 52 52 45 42 42 45 39 45 48 48 45 45 39 45 39 48 45
52 32 6 0 0 0 0 0 0 0 0 0 0 0 3 3 3 6 10 6 10 10 16 23 65 52 48 52 52 45 42 45 48 45 45 39 39 42 45 42 45 45 48 42 39 42 29 32 42
45 26 3 0 0 0 0 0 0 0 0 0 0 0 3 0 6 10 10 13 13 13 13 19 26 42 42 45 48 52 45 45 42 48 42 39 39 39 45 48 48 48 45 42 45 45 45 45 42
19 10 6 0 0 0 0 0 0 0 0 0 0 0 3 6 6 6 6 13 10 10 6 16 19 26 29 29 45 52 55 52 45 45 45 48 52 48 55 55 48 48 48 45 48 48 42 45 52
10 13 3 0 0 0 0 0 0 0 0 0 0 0 3 3 6 6 6 6 10 13 16 10 13 26 29 23 16 45 55 55 55 55 48 55 58 48 45 48 52 45 45 45 45 45 45 42 39
10 6 0 0 0 0 0 0 0 0 0 0 3 6 3 6 10 10 3 6 10 13 16 26 19 19 26 10 29 39 32 45 61 65 74 68 71 61 35 45 48 45 48 42 45 45 42 39 35
6 3 0 0 0 0 0 0 0 0 0 0 3 3 3 6 6 10 6 10 16 16 13 23 35 48 35 39 42 45 61 65 61 65 61 68 71 61 52 48 45 48 39 39 48 48 39 39 35
3 0 0 0 0 3 3 0 0 0 0 0 3 3 3 3 6 6 10 13 16 19 13 19 32 45 48 55 55 55 55 61 58 65 61 65 65 71 68 58 52 55 58 58 45 55 45 45 45
3 0 0 0 0 0 3 0 0 0 0 3 3 3 3 0 3 6 10 10 13 19 16 39 45 61 65 71 74 55 65 52 55 65 68 61 68 61 65 65 58 61 65 58 58 52 55 55 52
0 0 0 0 0 0 0 0 0 0 0 3 3 0 0 0 0 3 3 10 10 13 26 29 39 68 71 71 71 68 58 77 71 58 58 61 65 65 61 61 65 68 65 61 58 61 61 55 52
0 0 0 0 0 0 0 0 0 0 0 3 3 3 0 0 0 3 6 10 13 19 32 48 45 58 81 68 71 61 58 65 71 58 58 61 61 65 61 61 71 68 68 68 65 65 58 55 48
0 0 0 0 0 0 0 0 0 0 3 3 3 3 3 0 0 3 6 13 16 23 55 42 19 55 74 81 81 65 61 61 71 61 58 61 61 55 71 65 65 68 61 61 65 61 61 55 48
0 0 0 0 0 0 0 0 0 0 3 3 3 3 3 6 3 10 13 19 23 58 61 55 58 61 68 81 77 71 65 68 65 61 61 65 61 61 61 55 65 65 61 65 45 61 52 48 48
0 0 0 0 0 0 0 3 0 0 0 6 6 6 3 6 13 10 16 19 32 48 61 65 71 71 74 77 74 71 65 71 71 65 65 65 65 58 55 52 65 65 58 65 61 55 52 48 45
0 0 0 0 0 0 0 0 0 3 0 3 6 6 13 13 13 16 16 16 32 48 74 74 74 77 68 71 74 71 61 68 68 65 65 61 58 65 61 45 55 55 65 65 58 58 45 42 45
0 0 0 0 0 0 0 0 3 3 0 0 13 13 10 16 19 23 26 29 42 52 68 74 74 74 74 77 81 81 65 65 65 71 71 55 52 55 52 58 48 48 55 65 55 52 48 45 39
0 0 0 0 0 0 0 0 0 0 0 0 10 13 16 19 19 32 42 39 39 55 61 55 74 74 74 74 77 77 81 77 65 71 61 55 55 55 55 55 52 52 52 52 48 42 52 45 42
0 0 0 0 0 0 0 0 0 0 0 0 6 13 16 19 19 29 29 48 48 52 55 77 81 74 77 74 77 74 68 68 65 74 71 68 58 55 55 52 52 52 52 52 45 42 55 52 52
0 0 0 0 0 0 0 0 0 0 0 0 3 3 13 19 23 29 29 42 45 45 52 74 81 81 74 77 81 74 74 68 65 68 68 74 65 58 52 52 52 55 55 55 52 48 58 58 52
0 0 0 0 0 0 0 0 0 0 3 0 3 3 3 19 19 16 26 45 42 42 52 52 77 81 81 81 77 81 81 74 71 65 65 74 68 58 52 52 58 55 55 58 58 52 55 55 55
0 0 0 0 0 0 0 0 0 3 3 0 3 3 3 13 13 19 23 35 39 42 48 58 77 81 81 77 81 81 81 77 71 65 68 61 55 52 58 48 55 58 61 61 61 61 58 55 48
0 0 0 0 0 0 0 0 3 3 0 0 0 3 3 6 10 19 26 35 29 45 55 58 77 84 77 74 77 74 74 71 65 71 58 58 55 45 58 61 61 58 52 52 58 55 55 55 55
0 0 0 0 0 0 0 3 3 0 0 0 0 6 10 10 13 16 32 39 39 42 58 61 77 84 81 71 74 77 77 71 68 65 58 48 52 42 55 58 55 55 55 55 65 65 61 55 52
0 0 0 0 0 0 0 0 3 6 3 3 10 10 16 10 13 16 26 42 48 42 58 65 65 81 81 77 71 68 68 68 71 58 61 65 65 61 58 52 48 52 48 58 61 58 58 58 52
0 0 0 0 6 0 0 0 3 13 10 10 10 10 10 19 19 19 23 42 48 48 52 65 68 71 71 71 71 71 65 65 61 61 61 58 58 61 61 58 55 45 42 48 52 42 42 42 45
0 0 0 0 3 3 0 0 10 10 6 3 6 10 16 19 23 26 29 39 55 58 55 71 71 65 65 77 77 68 65 58 61 58 65 61 58 52 55 55 55 45 35 42 42 42 42 42 42

GEFSSGP_con_cape1000_324.txt.gz
Probability
29 6 3 16 13 6 0 0 0 0 0 0 0 10 6 6 0 0 0 6 6 13 29 65 77 71 61 58 52 58 61 68 61 58 61 65 65 61 55 52 52 52 52 52 52 55 58 52 58
3 6 19 13 10 0 0 0 0 0 0 0 0 0 3 3 6 3 6 10 6 13 23 39 77 68 65 61 58 68 68 68 65 68 74 65 68 65 58 52 61 58 55 58 52 52 55 65 61
3 10 16 19 6 0 0 0 0 0 0 0 0 0 3 0 6 6 10 6 6 10 16 42 71 68 65 68 68 71 68 61 61 61 71 68 55 58 58 61 58 58 55 55 55 58 58 61 65
13 16 16 10 6 0 0 0 0 0 0 0 0 0 3 3 10 6 13 6 3 6 16 35 65 68 71 74 68 71 74 61 58 61 58 65 48 48 52 55 55 55 55 55 55 58 58 61 65
16 32 26 3 0 0 0 0 0 0 0 0 0 0 3 6 10 13 13 10 3 3 16 32 68 65 68 68 71 71 68 68 61 52 58 58 55 48 52 52 55 58 52 52 52 52 55 52 52
29 19 6 0 0 0 0 0 0 0 0 0 0 0 3 6 0 0 6 10 3 6 16 32 61 71 77 68 71 68 65 68 61 55 52 55 52 45 48 55 58 58 55 45 55 55 48 45 45
26 10 6 0 0 0 0 0 0 0 0 0 0 0 0 3 0 3 0 6 10 10 10 32 39 45 58 65 71 65 65 58 58 55 58 55 55 52 52 61 55 52 48 55 48 48 48 39 45
26 6 6 3 0 0 0 0 0 0 0 0 0 0 0 0 0 0 0 3 3 3 6 10 19 19 29 39 61 68 68 71 71 61 61 58 55 58 55 55 61 58 55 48 55 48 48 48 45
6 3 0 0 0 0 0 0 0 0 0 0 0 0 0 0 0 0 0 0 0 3 3 3 10 10 19 23 39 55 68 71 65 58 61 55 19 19 26 35 45 45 52 48 42 45 45 48 52
0 3 0 3 0 0 0 0 0 0 0 0 0 0 0 0 0 0 0 0 0 0 0 0 3 3 3 10 16 19 23 29 26 23 26 10 10 10 23 35 48 48 52 55 55 52 48 42 35
3 3 0 3 0 0 0 0 0 0 0 0 0 0 0 0 0 0 0 0 0 0 0 0 3 3 6 3 3 6 10 10 13 16 13 10 13 13 16 13 32 26 42 29 39 39 32 29 23
3 3 0 0 0 0 0 0 0 0 0 0 3 3 3 0 0 0 0 0 3 0 0 0 0 3 3 6 6 6 6 6 10 6 10 6 10 10 6 6 13 16 3 10 19 19 23 19 13
0 0 0 0 0 0 0 0 0 3 3 0 3 0 3 3 3 3 3 3 3 3 3 6 6 3 3 6 6 6 10 10 13 13 16 13 13 10 10 13 13 10 10 16 16 10 16 13 13
0 0 0 0 0 0 0 0 0 0 3 0 3 3 0 3 3 3 6 3 3 3 6 10 10 10 3 10 6 6 13 13 16 16 16 13 16 13 13 16 10 6 10 16 13 10 10 6 13
0 0 0 0 0 0 0 0 0 0 0 0 3 6 6 6 6 3 3 3 3 6 10 10 10 10 16 16 10 10 13 13 16 19 13 10 13 6 13 6 3 10 13 13 10 3 6 3 3
0 0 0 0 0 0 0 0 0 0 0 0 0 6 6 3 3 6 6 6 6 6 6 10 13 13 19 16 23 16 16 13 10 13 13 6 16 16 13 6 6 6 6 10 3 3 3 3 3
0 0 0 0 0 0 0 0 0 0 0 0 0 0 0 0 0 3 3 6 3 6 10 13 16 16 16 16 13 13 6 10 3 10 10 10 16 10 6 3 10 13 13 10 13 6 6 3 3
0 0 0 0 0 0 0 0 0 0 0 0 0 0 0 0 0 3 6 6 6 6 13 16 23 19 19 19 13 13 13 10 10 10 10 16 16 13 10 10 19 16 16 6 10 6 6 3 6
0 0 0 0 0 0 0 0 0 0 0 0 0 0 0 0 3 3 6 10 6 10 16 19 23 23 23 29 26 19 13 10 10 13 19 23 19 19 16 16 13 13 16 19 13 10 6 3 3
0 0 0 0 0 0 0 0 0 0 0 0 0 0 0 3 3 10 10 13 10 13 16 23 26 26 23 26 29 23 19 16 16 23 23 23 19 23 32 19 16 19 16 13 13 10 10 6 3
0 0 0 0 0 0 0 0 0 0 0 0 0 3 3 3 3 10 10 13 23 19 23 32 29 29 35 29 26 19 19 19 19 23 23 19 23 23 19 19 23 23 26 23 13 13 13 13 10
0 0 0 0 0 0 0 0 0 0 0 0 0 3 3 6 3 10 13 19 23 26 29 29 29 39 32 35 32 39 26 23 23 23 16 16 16 16 16 13 19 19 19 16 23 16 16 19 19
0 0 0 0 0 0 0 0 0 0 0 3 3 6 6 3 3 6 13 19 23 29 32 35 32 32 42 45 39 39 29 23 19 26 13 19 13 19 13 13 13 16 19 13 13 16 16 16 23
0 0 0 0 0 0 0 0 0 0 0 3 6 6 6 3 3 6 10 13 16 29 39 35 35 35 35 42 35 29 23 23 23 19 23 16 16 16 23 16 16 16 16 16 16 13 13 13 16
0 0 0 0 0 0 0 0 0 0 0 3 3 6 3 3 3 10 10 13 19 32 39 42 32 35 45 52 45 35 26 26 23 23 19 19 19 23 23 23 16 16 16 23 19 19 26 29 26
0 0 0 0 0 0 0 0 0 0 3 3 3 3 6 10 13 19 19 23 23 26 39 42 45 35 35 45 42 35 32 29 26 29 23 19 19 19 19 23 19 19 23 23 19 26 29 23 23
0 0 0 0 0 0 0 0 0 3 3 6 3 3 6 13 13 16 19 19 29 29 39 42 39 39 39 48 45 42 35 32 35 29 23 23 23 23 23 23 23 26 26 26 19 19 26 23 29
0 0 0 0 0 0 0 0 0 6 6 6 3 3 6 13 10 13 16 23 23 26 32 39 29 35 45 48 48 45 35 29 32 29 19 19 19 19 23 23 23 23 23 23 19 19 19 26 23
0 0 0 0 0 0 0 0 0 3 3 0 0 3 6 13 16 16 19 26 23 23 32 32 32 32 39 42 42 35 39 35 29 26 23 19 19 23 23 23 19 16 16 23 19 23 23 26 26
0 0 0 0 0 0 0 0 0 3 0 0 3 6 10 16 16 26 19 26 26 29 29 29 26 23 29 32 39 35 39 39 35 32 29 26 26 19 16 16 16 16 19 19 23 23 26 26 19

GEFSSGP_con_cape1000_330.txt.gz
Probability
6 6 6 6 0 0 0 0 0 0 0 0 0 0 0 0 0 0 0 3 6 10 16 39 65 55 58 55 55 52 55 58 58 58 58 61 61 55 58 55 55 58 52 58 58 61 55 58 52
6 6 6 3 0 0 0 0 0 0 0 0 0 3 3 3 3 0 0 6 6 10 16 26 58 58 55 61 68 65 65 61 58 52 55 58 58 52 58 58 68 58 55 61 61 65 65 65 58
6 6 10 3 0 0 0 0 0 0 0 0 0 3 0 3 3 0 3 6 6 6 6 19 61 58 61 61 65 68 68 65 65 52 48 52 55 55 61 65 65 55 58 61 61 61 65 65 65
6 6 3 0 0 0 0 0 0 0 0 0 0 3 3 3 6 0 6 6 6 6 6 19 61 74 65 65 68 68 61 65 65 55 48 52 52 45 48 52 58 61 58 61 65 58 58 55 65
10 13 0 0 0 0 0 0 0 0 0 0 0 0 3 3 3 3 6 6 6 6 6 19 61 65 71 71 65 65 61 61 58 55 52 55 52 48 52 52 52 58 58 65 61 55 65 55 58
10 10 0 0 0 0 0 0 0 0 0 0 0 0 0 3 6 6 3 6 6 6 10 13 58 65 71 71 68 65 61 58 55 52 55 58 61 61 58 58 55 55 55 58 55 55 48 48 55
3 3 0 0 0 0 0 0 0 0 0 0 0 0 0 0 10 6 6 3 6 6 10 10 23 35 58 65 68 68 61 58 61 55 61 55 58 61 61 61 58 55 48 52 55 55 45 48 52
3 0 0 0 0 0 0 0 0 0 0 0 0 0 0 0 6 6 6 6 6 3 6 10 13 19 26 45 61 65 58 58 58 55 55 55 61 52 55 58 58 45 52 55 52 42 39 52 52
0 0 0 0 0 0 0 0 0 0 0 0 0 0 0 0 6 6 6 6 6 6 6 10 10 10 10 13 39 55 58 58 55 48 45 48 29 29 32 35 55 55 52 48 48 45 45 48 45
0 0 0 0 0 0 0 0 0 0 0 0 0 0 0 3 6 6 6 3 6 6 6 6 6 10 10 10 6 16 19 23 19 16 16 13 10 16 23 32 45 52 58 61 52 48 42 39 26
3 0 0 0 0 0 0 0 0 0 0 0 0 3 3 3 6 6 6 3 3 6 6 6 6 6 3 6 6 10 13 10 10 10 10 6 6 6 10 6 19 26 32 26 19 32 39 29 26
3 3 0 0 0 0 0 0 0 0 3 3 0 3 3 3 6 6 3 3 3 3 3 3 3 3 3 3 6 6 3 10 10 10 10 6 6 3 3 3 3 3 3 6 10 16 16 19 19
3 3 3 3 3 0 0 0 0 3 3 6 10 6 6 0 0 3 3 0 0 3 3 6 6 3 3 3 6 10 3 3 3 6 6 6 3 3 3 3 3 3 3 3 3 6 3 10 13
0 0 0 0 0 0 0 0 0 3 3 6 6 6 3 3 3 3 3 0 0 3 3 3 6 6 6 6 3 3 3 3 3 3 0 3 3 3 3 6 6 6 3 3 3 6 6 6 10
0 0 0 0 0 0 0 0 0 3 3 6 6 3 3 3 3 3 3 3 3 3 3 3 6 3 6 3 3 3 3 3 3 3 3 6 6 6 3 6 6 6 6 6 6 6 6 6 6
0 0 0 0 0 0 0 0 0 3 3 3 6 6 3 3 3 3 3 3 3 3 3 6 16 6 0 0 0 0 0 0 0 0 3 6 6 10 6 10 16 6 3 3 3 6 6 3 3
0 0 0 0 0 0 0 0 0 3 3 3 3 3 3 3 3 3 3 3 3 3 6 10 10 6 0 0 0 0 0 0 0 0 3 6 10 6 3 3 6 3 3 3 6 6 3 3 3
0 0 0 0 0 0 0 0 0 0 0 0 0 0 0 3 3 3 3 6 3 6 13 13 10 0 3 0 0 0 0 0 0 0 3 10 6 3 3 6 3 3 3 3 6 3 3 3 3
0 0 0 0 0 0 0 0 0 0 0 0 0 0 0 3 0 3 6 6 10 10 13 13 6 3 0 0 3 0 0 0 0 0 3 10 10 16 13 10 6 6 10 6 6 6 3 3 0
0 0 0 0 0 0 0 0 0 0 0 0 0 0 0 0 0 6 6 6 10 10 13 10 10 6 6 6 3 3 3 3 3 3 6 10 10 13 13 10 10 6 10 10 6 6 6 3 3
0 0 0 0 0 0 0 0 0 0 0 0 0 3 3 3 0 3 3 6 10 10 10 19 10 10 6 6 10 6 6 10 6 6 6 10 13 16 16 19 13 13 10 10 10 6 10 10 3
0 0 0 0 0 0 0 0 0 0 3 3 3 3 3 3 0 3 3 3 10 10 10 13 13 10 13 13 13 6 6 6 10 6 3 10 13 13 16 13 13 13 13 13 10 10 10 13 13
0 0 0 0 0 0 0 0 0 0 3 3 3 6 6 3 3 3 6 3 3 13 16 16 16 16 16 13 10 6 3 3 6 3 3 6 6 6 6 13 13 10 10 13 13 13 10 10 10
0 0 0 0 0 0 0 0 0 3 3 3 3 3 3 3 3 6 6 6 10 13 16 13 10 10 10 6 6 6 3 3 3 3 0 3 3 6 10 13 13 13 13 13 10 13 13 13 16
0 0 0 0 0 0 0 0 3 3 3 3 6 6 6 3 6 10 10 6 6 6 16 16 13 13 13 10 6 6 3 3 3 0 3 3 13 16 13 13 13 13 13 13 13 13 16 16 23
0 0 0 0 0 0 0 0 3 3 0 3 6 6 3 3 6 6 6 3 3 10 10 13 13 19 19 16 6 3 6 13 6 6 10 10 10 13 16 16 16 16 19 19 13 13 16 19 16
0 0 0 0 0 0 0 3 3 3 3 3 6 6 3 3 6 6 6 3 3 10 10 16 16 16 19 23 10 6 6 10 10 10 10 10 13 13 16 16 16 16 16 16 16 16 16 13 13
0 0 0 0 0 0 0 0 3 3 3 3 3 3 3 6 6 6 6 6 3 6 10 16 13 16 13 13 10 6 3 6 10 10 10 13 13 13 16 16 13 13 13 16 16 10 13 13 16
0 0 0 0 0 0 0 0 0 0 3 3 0 0 3 6 6 3 6 10 3 6 16 13 13 10 13 13 13 16 10 3 6 6 10 10 10 13 16 10 13 13 13 13 10 10 16 13 16
0 0 0 0 0 0 0 0 0 0 3 0 0 0 3 6 3 10 10 10 6 10 6 16 16 13 19 16 16 16 16 13 10 10 13 16 16 13 10 6 6 6 6 6 10 13 13 13 16

GEFSSGP_con_cape1000_336.txt.gz
Probability
13 23 23 35 29 3 0 0 0 0 0 0 0 0 0 0 0 13 10 10 6 23 29 35 52 61 58 48 52 45 52 45 45 48 52 48 55 55 58 58 58 55 55 61 58 55 55 55 61
26 23 32 45 10 0 0 0 0 0 0 0 0 0 0 3 3 6 6 10 13 13 26 32 52 55 52 61 58 61 55 48 48 48 48 48 55 55 55 55 61 58 55 58 61 58 55 55 55
23 23 48 13 3 0 0 0 3 0 0 0 0 3 0 3 3 6 10 13 13 13 23 39 55 55 52 61 65 58 55 55 48 45 52 52 61 58 55 52 48 52 52 55 58 65 61 61 65
32 42 26 10 0 0 0 0 0 3 0 0 0 0 0 3 3 10 10 13 13 10 13 39 52 52 48 55 58 55 45 52 48 45 52 55 52 45 52 48 52 48 58 55 61 68 68 61 65
29 29 13 0 0 0 0 0 0 0 0 0 0 0 3 3 10 10 10 10 10 10 13 23 55 52 48 55 58 58 52 48 52 42 48 45 48 45 45 42 52 58 58 58 65 68 71 65 61
35 19 3 0 0 0 0 0 0 0 0 0 0 0 3 6 3 10 6 10 13 6 10 13 45 58 52 48 52 48 48 58 52 39 42 45 48 45 48 61 52 52 52 58 55 58 55 58 55
32 3 3 0 0 0 0 0 0 0 0 0 0 0 3 13 13 16 10 10 6 10 13 10 26 39 55 55 55 55 48 55 55 55 48 52 55 52 52 55 55 52 55 55 55 52 45 45 55
32 13 0 0 0 0 0 0 0 0 0 0 0 0 0 6 10 10 10 10 10 10 10 13 16 23 26 29 52 55 52 55 52 48 39 45 52 52 52 58 61 48 55 48 42 42 42 42 39
29 10 0 0 0 0 0 0 0 0 0 0 0 0 3 10 10 10 16 16 10 10 13 16 19 23 23 23 23 45 58 48 42 42 39 39 58 45 52 45 58 58 48 42 45 32 32 39 32
23 6 0 0 0 0 0 0 0 0 0 0 0 3 6 10 13 13 13 16 16 13 19 26 23 26 29 16 29 39 42 48 48 55 48 52 58 58 32 45 48 48 39 45 42 32 32 32 26
13 6 3 0 0 0 0 0 0 0 0 0 3 6 10 10 10 13 13 19 23 19 23 23 26 35 29 26 26 35 48 52 48 55 61 65 58 52 55 52 55 48 45 48 35 26 23 23 23
10 10 10 3 3 0 0 0 3 0 3 0 0 3 10 10 10 13 13 13 19 29 23 26 35 42 39 29 32 32 35 39 35 48 52 55 58 52 48 58 45 52 52 48 35 35 32 26 19
10 10 3 3 3 3 3 3 0 6 3 0 3 10 10 6 10 10 13 16 16 23 26 29 35 42 42 48 42 32 42 35 45 52 55 55 52 58 45 61 65 45 42 39 42 32 32 29 26
3 3 3 3 3 3 3 3 3 0 0 3 3 10 6 6 10 10 13 16 16 19 23 32 35 45 55 52 55 45 45 58 48 52 52 52 58 55 55 55 58 48 45 45 39 26 35 39 35
3 3 3 0 0 0 3 0 0 0 0 0 3 13 10 10 10 16 13 23 16 16 23 32 32 39 65 55 55 42 45 45 45 55 55 52 48 55 48 52 55 52 48 48 39 29 35 39 29
3 3 0 0 0 0 0 0 3 3 0 0 3 10 19 13 13 16 19 26 29 29 32 32 23 32 58 74 68 48 52 48 52 55 52 52 52 58 65 58 55 61 48 52 39 42 39 35 32
0 0 0 0 0 0 0 0 3 3 0 3 6 13 13 10 13 13 13 23 26 32 45 48 52 48 52 65 71 55 58 55 55 55 45 55 58 52 48 55 58 61 52 52 39 42 45 42 42
0 0 0 0 0 0 0 0 0 6 3 3 3 6 10 10 13 16 19 26 26 39 55 58 61 65 61 55 71 68 61 52 52 55 58 58 52 52 58 55 65 52 48 55 52 52 55 48 55
0 3 0 0 0 0 3 3 6 3 6 6 6 6 6 10 13 19 26 35 39 52 65 68 74 71 74 74 68 68 61 61 61 58 65 65 58 55 65 58 61 58 52 58 52 48 35 42 48
0 0 0 3 0 0 3 3 10 10 6 6 10 10 10 13 16 26 26 32 39 55 68 71 71 71 71 77 77 74 65 58 61 58 61 58 55 55 39 61 61 52 61 55 58 48 42 39 45
0 0 0 0 0 0 0 3 10 6 3 6 10 10 13 13 23 23 26 32 29 48 58 58 71 71 68 68 65 65 61 55 58 58 58 52 55 52 52 52 58 58 52 55 61 58 55 45 48
0 0 0 0 0 0 0 0 10 3 6 10 10 10 10 6 16 19 26 32 35 35 45 61 68 68 71 65 58 61 61 58 61 61 58 58 52 48 42 45 55 68 52 58 42 42 48 52 45
0 0 0 0 0 0 0 0 0 6 10 13 10 10 10 10 19 19 26 29 39 39 42 55 65 71 65 65 65 68 61 61 58 58 58 55 48 42 39 39 52 58 45 52 48 45 48 48 45
0 0 0 0 0 0 0 0 3 3 6 10 13 13 19 19 19 29 32 39 42 39 35 42 55 65 68 61 65 65 65 61 61 61 61 52 48 42 35 35 42 39 39 48 45 48 45 48 55
0 0 0 0 0 0 0 0 0 6 6 10 10 13 19 26 23 23 29 42 48 42 42 45 55 61 61 65 68 68 68 68 68 58 55 52 42 35 48 39 39 35 39 42 42 45 45 45 48
0 0 0 0 0 0 3 0 3 10 6 6 10 16 23 23 19 19 23 35 45 48 48 52 55 58 55 55 68 68 65 58 58 55 52 52 45 35 39 42 42 39 32 32 35 32 35 35 42
0 0 0 0 0 0 0 3 6 6 6 6 13 19 23 26 19 19 16 32 35 45 52 45 52 61 58 58 61 65 61 61 55 55 55 45 48 45 39 48 39 42 35 29 32 35 32 35 35
0 0 0 0 0 0 0 3 3 10 10 10 13 19 26 26 19 19 19 23 32 39 52 52 52 55 55 55 48 39 55 55 55 55 52 52 52 48 42 39 39 35 32 32 35 29 32 32 39
0 0 0 0 0 0 0 0 0 10 10 6 10 19 23 26 26 23 19 16 29 35 39 48 48 52 48 42 48 45 42 45 48 48 48 52 52 52 48 45 42 39 39 35 39 29 35 32 29
0 0 0 0 0 0 0 0 3 6 10 6 13 19 19 23 19 19 19 26 32 39 42 45 48 48 48 42 45 42 48 45 42 48 48 52 58 52 52 48 48 45 35 35 32 29 29 35 35

GEFSSGP_con_cape1000_342.txt.gz
Probability
10 10 39 71 71 45 6 0 0 0 0 0 0 0 3 13 16 13 13 19 26 26 42 58 71 65 52 48 52 52 52 48 48 52 61 65 65 55 55 52 55 55 55 65 58 55 55 58 58
16 35 65 71 52 6 3 0 0 0 0 0 3 6 3 13 10 13 13 23 23 26 35 42 71 68 65 61 58 55 52 45 48 48 58 61 65 55 55 55 52 55 55 58 55 52 45 52 48
35 45 61 65 26 0 0 0 0 0 0 0 3 3 3 6 13 16 16 19 23 26 32 71 74 68 68 61 58 58 55 52 45 48 52 58 52 52 48 45 52 42 52 52 52 48 52 52 42
58 71 55 32 6 6 3 0 0 0 0 0 0 0 3 10 10 16 19 16 16 29 26 55 74 71 68 61 55 58 55 48 48 52 55 58 55 48 48 42 52 45 48 55 55 55 55 58 45
65 58 35 6 0 0 3 3 3 0 0 6 6 6 6 10 10 16 16 13 19 23 35 45 71 71 65 58 55 45 42 42 42 48 48 52 52 52 42 39 48 48 55 55 58 55 55 52 48
61 45 23 3 0 3 0 0 0 0 0 6 6 3 13 6 10 16 16 16 13 19 26 42 71 71 68 55 48 45 45 42 39 35 29 42 55 48 52 45 42 48 48 55 58 61 55 42 52
45 26 13 3 0 3 3 3 0 3 0 0 0 6 13 10 13 13 16 13 13 13 23 32 39 61 61 55 48 48 45 42 35 32 39 35 45 52 52 58 58 48 52 58 48 58 55 39 45
32 26 10 3 0 0 0 0 0 0 3 0 3 0 13 16 16 13 19 23 16 19 26 26 32 35 35 39 55 48 45 39 45 42 45 45 48 55 61 61 52 52 45 42 48 45 42 35 45
10 13 6 0 0 0 0 0 3 0 0 0 0 3 13 19 19 19 16 19 23 23 26 26 32 29 32 35 32 45 55 48 52 39 45 55 58 55 68 48 68 52 55 52 52 48 48 42 45
3 3 3 3 0 0 0 0 3 3 0 0 3 10 13 16 19 23 19 19 26 26 26 29 29 29 29 26 35 52 39 58 58 68 55 58 68 74 48 52 71 61 68 68 65 52 52 48 29
10 6 6 3 0 0 0 0 3 3 3 3 3 6 13 16 23 23 16 23 26 29 29 29 39 45 35 45 45 55 61 68 58 61 68 71 61 61 61 61 61 61 58 61 58 52 39 32 29
6 6 3 3 0 0 0 0 0 3 3 3 6 3 6 6 16 13 26 29 29 29 29 29 39 55 55 55 58 52 55 61 58 61 65 61 68 61 65 71 68 61 58 55 58 52 45 29 23
0 0 0 0 0 0 0 0 0 3 3 3 6 6 0 3 6 13 29 35 35 39 29 48 55 65 68 74 71 61 61 61 58 74 65 71 71 71 65 68 68 61 61 61 61 55 48 52 39
3 3 0 0 0 0 0 0 0 3 3 3 3 3 0 0 13 19 32 39 32 35 32 52 55 68 71 71 68 68 65 71 58 58 68 71 65 71 68 71 68 65 65 61 58 61 58 52 52
3 3 3 0 0 0 0 0 3 3 3 3 3 6 6 6 10 23 26 35 35 42 55 61 65 71 71 71 68 68 68 58 65 68 68 65 71 71 68 65 74 71 68 68 61 58 61 58 55
3 0 0 0 0 0 0 0 3 3 3 3 6 6 6 6 13 26 29 42 52 58 65 65 42 68 81 81 77 71 68 68 65 65 61 65 68 71 74 65 58 71 65 74 65 55 52 61 58
0 0 0 0 0 0 0 6 3 3 3 3 6 6 10 13 13 32 32 42 52 68 68 71 68 68 74 74 77 74 74 77 71 65 61 65 61 61 58 65 65 68 65 65 61 68 65 61 55
0 0 0 0 3 3 3 6 6 3 3 6 10 10 13 16 26 32 32 35 52 58 74 71 74 81 81 77 77 77 77 77 77 71 65 55 58 58 58 65 74 68 71 71 71 68 68 61 65
0 0 3 3 3 0 0 6 6 6 3 6 10 10 13 19 19 29 32 35 52 65 77 81 71 81 77 77 77 81 81 81 77 71 68 65 61 61 58 55 77 68 65 65 65 61 61 68 65
0 0 3 0 0 0 0 6 6 3 6 6 10 10 16 19 26 35 42 45 45 74 77 77 81 81 87 84 84 84 84 81 74 68 74 71 65 65 52 68 68 65 65 65 65 65 71 58 58
0 0 0 0 0 0 0 3 6 6 10 13 16 13 16 16 23 32 32 35 39 61 68 68 74 84 87 87 87 87 87 87 77 74 74 68 61 58 61 65 65 71 65 65 65 65 61 58 58
0 0 0 0 0 0 0 0 10 10 16 19 23 16 10 13 19 29 32 45 39 55 61 74 77 77 84 81 81 84 81 77 77 81 74 74 65 55 58 61 55 61 61 68 65 65 58 55 52
0 0 0 0 0 0 0 0 3 10 16 19 16 16 10 10 13 32 32 35 32 42 52 68 74 81 77 77 77 77 74 74 74 77 74 77 71 65 58 52 55 58 58 61 61 58 55 52 48
0 0 0 3 0 0 0 0 3 13 16 16 13 13 10 16 23 23 42 42 35 42 52 55 74 81 81 74 74 77 74 77 77 74 74 68 61 68 61 58 58 65 65 65 58 55 65 58 48
0 0 3 0 0 0 0 0 3 6 3 6 10 10 10 19 23 26 39 45 52 52 48 68 77 84 77 71 71 74 77 77 74 68 68 68 61 58 61 55 68 65 65 61 68 65 61 58 52
0 0 0 0 0 0 0 0 3 3 3 3 10 6 10 19 23 19 26 45 48 55 65 71 74 81 77 74 71 71 77 61 65 68 61 61 55 52 58 61 65 65 65 52 58 55 55 52 48
0 0 0 0 0 0 0 0 6 3 3 0 6 10 13 19 26 26 26 35 45 48 58 58 68 74 71 71 74 74 74 68 61 68 68 61 65 55 58 55 58 55 55 52 58 55 48 55 52
0 0 0 0 10 0 0 3 3 6 6 3 3 10 23 26 23 23 26 26 35 45 55 55 55 71 71 68 61 55 61 68 68 68 71 65 65 61 58 52 52 55 55 52 52 52 45 48 52
0 0 0 0 3 0 0 3 0 10 6 6 6 6 13 19 19 19 23 23 35 42 48 55 55 61 65 61 65 61 61 61 71 71 65 65 61 58 58 55 55 55 55 55 48 45 45 45 42
0 0 0 0 6 0 0 0 3 6 6 6 3 6 6 10 16 16 16 26 32 39 48 55 55 52 55 58 58 61 65 65 65 58 68 61 61 61 52 58 55 55 55 55 48 45 45 39 39